Weather History for Fargo, ND

Change the Weather History Date:

Sunday, February 17, 2013

  Actual Average Record
Temperature  
Mean Temperature 23 °F 15 °F  
Max Temperature 31 °F 24 °F 48 °F (2002)
Min Temperature 14 °F 6 °F -30 °F (1979)
Degree Days  
Heating Degree Days 42 50  
Month to date heating degree days 870 891  
Since 1 July heating degree days 6003 6159  
Cooling Degree Days 0 0  
Month to date cooling degree days 0 0  
Year to date cooling degree days 0 0  
Moisture  
Dew Point 18 °F    
Average Humidity 78    
Maximum Humidity 84    
Minimum Humidity 72    
Precipitation  
Precipitation T in 0.02 in 0.34 in (1904)
Month to date precipitation 1.18 0.30  
Year to date precipitation 2.15 1.00  
Snow  
Snow T in 0.20 in 3.40 in (1904)
Month to date snowfall 13.9 3.8  
Since 1 July snowfall 36.6 34.8  
Snow Depth 13.00 in    
Sea Level Pressure  
Sea Level Pressure 29.70 in    
Wind  
Wind Speed 20 mph (SSE)    
Max Wind Speed 31 mph    
Max Gust Speed 38 mph    
Visibility 7 miles    
Events      
T = Trace of Precipitation, MM = Missing Value Source: NWS Daily Summary

Daily Weather History Graph

Daily Weather History Graph

Search for Another Location

Airport:

Trip Planner

Search our weather history database for the weather conditions in past years. The results will help you decide how hot, cold, wet, or windy it might be!

Date:

Astronomy

Feb. 17, 2013 Rise Set
Actual Time 7:27 AM CST 5:55 PM CST
Civil Twilight 6:56 AM CST 6:26 PM CST
Nautical Twilight 6:21 AM CST 7:02 PM CST
Astronomical Twilight 5:46 AM CST 7:37 PM CST
Moon 10:51 AM CST (2/17) 1:21 AM CST (2/17)
Length of Visible Light 11h 29m
Length of Day
10h 27m
Waxing Crescent, 49% of the Moon is Illuminated
Feb 17
Waxing Crescent
Feb 17
First Quarter
Feb 25
Full
Mar 4
Last Quarter
Mar 11
New

Hourly Weather History & Observations

Time (CST) Temp. Windchill Dew Point Humidity Pressure Visibility Wind Dir Wind Speed Gust Speed Precip Events Conditions
12:53 AM 15.1 °F -1.6 °F 8.1 °F 74% 29.99 in 10.0 mi SSE 18.4 mph 26.5 mph N/A   Overcast
1:53 AM 14.0 °F -3.4 °F 8.1 °F 77% 29.97 in 10.0 mi SSE 19.6 mph 25.3 mph N/A   Overcast
2:53 AM 15.1 °F -2.0 °F 9.0 °F 77% 29.94 in 9.0 mi South 19.6 mph 25.3 mph N/A   Overcast
3:39 AM 15.8 °F -1.5 °F 8.6 °F 73% 29.87 in 9.0 mi South 20.7 mph - N/A   Overcast
3:53 AM 16.0 °F 0.1 °F 10.0 °F 77% 29.92 in 8.0 mi South 17.3 mph 27.6 mph N/A   Overcast
4:44 AM 17.6 °F 2.7 °F 10.4 °F 73% 29.82 in 9.0 mi SSE 16.1 mph - N/A   Overcast
4:53 AM 17.1 °F 2.5 °F 12.0 °F 81% 29.88 in 9.0 mi South 15.0 mph - N/A   Overcast
5:53 AM 19.0 °F 4.5 °F 12.9 °F 77% 29.85 in 9.0 mi SSE 16.1 mph - N/A   Overcast
6:35 AM 19.4 °F 4.1 °F 14.0 °F 80% 29.77 in 9.0 mi SSE 18.4 mph - N/A   Overcast
6:53 AM 19.4 °F 4.5 °F 12.2 °F 74% 29.77 in 9.0 mi SSE 17.3 mph 24.2 mph N/A   Scattered Clouds
7:53 AM 18.0 °F 1.7 °F 12.9 °F 81% 29.78 in 6.0 mi SSE 19.6 mph 26.5 mph N/A   Haze
8:53 AM 19.9 °F 3.2 °F 15.1 °F 81% 29.76 in 5.0 mi SSE 23.0 mph 28.8 mph N/A   Haze
9:53 AM 21.9 °F 6.5 °F 16.0 °F 78% 29.72 in 6.0 mi SSE 20.7 mph 29.9 mph N/A   Haze
10:53 AM 23.0 °F 7.2 °F 17.1 °F 78% 29.69 in 4.0 mi SSE 23.0 mph 34.5 mph N/A   Haze
11:53 AM 25.0 °F 10.2 °F 19.0 °F 78% 29.68 in 5.0 mi SSE 21.9 mph 33.4 mph N/A   Haze
12:53 PM 26.1 °F 10.7 °F 19.9 °F 78% 29.63 in 5.0 mi SSE 25.3 mph 33.4 mph N/A   Haze
1:53 PM 27.0 °F 13.2 °F 21.0 °F 78% 29.61 in 5.0 mi South 20.7 mph 34.5 mph 0.00 in   Haze
2:53 PM 28.0 °F 13.3 °F 21.9 °F 78% 29.57 in 5.0 mi SSE 25.3 mph 32.2 mph 0.00 in   Haze
3:53 PM 28.9 °F 14.0 °F 21.9 °F 75% 29.56 in 5.0 mi SSE 27.6 mph 36.8 mph 0.01 in   Haze
4:53 PM 28.9 °F 14.8 °F 23.0 °F 78% 29.56 in 4.0 mi SSE 24.2 mph 34.5 mph 0.00 in   Haze
5:53 PM 30.0 °F 16.3 °F 23.0 °F 75% 29.57 in 6.0 mi SSE 24.2 mph 36.8 mph N/A   Haze
6:53 PM 30.0 °F 17.5 °F 24.1 °F 79% 29.58 in 8.0 mi SSE 19.6 mph 27.6 mph 0.01 in   Overcast
7:53 PM 30.9 °F 19.4 °F 25.0 °F 79% 29.58 in 9.0 mi SSE 17.3 mph - N/A   Overcast
8:06 PM 30.2 °F 17.8 °F 24.8 °F 80% 29.53 in 9.0 mi SSE 19.6 mph 25.3 mph N/A   Overcast
8:53 PM 30.9 °F 19.1 °F 25.0 °F 79% 29.57 in 9.0 mi South 18.4 mph 24.2 mph N/A   Overcast
9:53 PM 30.9 °F 19.4 °F 25.0 °F 79% 29.55 in 8.0 mi South 17.3 mph - N/A   Overcast
11:49 PM 30.2 °F 22.6 °F 26.6 °F 86% 29.48 in 7.0 mi South 8.1 mph - N/A   Overcast
11:53 PM 30.0 °F 23.2 °F 26.1 °F 85% 29.52 in 7.0 mi South 6.9 mph - N/A   Overcast